Location: Dvur Kralove nad Labem
(50.4330°N, 15.8170°E)
Time: 15:02:41
(UTC+02:00)

ISS - Pass Details

Date: 21 May 2018
Orbit: 402 x 407 km, 51.6° (Epoch: 24 May)

Event Time Altitude Azimuth Distance (km) Brightness Sun altitude
Rises 02:20:44 0° 283° (WNW) 2,319 -0.1 -16.8°
Reaches altitude 10° 02:22:49 10° 284° (WNW) 1,459 -1.1 -16.7°
Maximum altitude 02:26:05 88° 15° (NNE) 408 -3.9 -16.5°
Drops below altitude 10° 02:29:21 10° 104° (ESE) 1,455 -0.9 -16.3°
Sets 02:31:26 0° 104° (ESE) 2,313 0.1 -16.2°
